FW7460 Weather Reports


time (UTC)temp
C
wind
direction
speed
KPH
gust
KPH
rain 1hr
cm
rain 24hr
cm
rain mn
cm
humidity
%
barometer
mb
20260906223405 31 61 9.7 14.5 0.00 0.00 0.00 36 1010.2
20260906222903 32 78 11.3 16.1 0.00 0.00 0.00 36 1010.0
20260906222402 31 31 14.5 22.5 0.00 0.00 0.00 35 1009.8
20260906221859 32 41 9.7 24.1 0.00 0.00 0.00 34 1010.2
20260906221354 32 28 11.3 16.1 0.00 0.00 0.00 34 1010.4
20260906220849 31 343 8.0 11.3 0.00 0.00 0.00 35 1010.4
20260906220345 31 53 6.4 14.5 0.00 0.00 0.00 35 1010.9
20260906215843 31 81 6.4 12.9 0.00 0.00 0.00 35 1010.9
20260906215338 31 86 9.7 14.5 0.00 0.00 0.00 34 1010.9
20260906214837 31 72 3.2 14.5 0.00 0.00 0.00 35 1010.9
20260906214336 31 90 6.4 16.1 0.00 0.00 0.00 34 1010.7
20260906213836 31 86 9.7 17.7 0.00 0.00 0.00 35 1011.1
20260906213336 32 91 8.0 14.5 0.00 0.00 0.00 34 1011.1
20260906212833 32 76 11.3 24.1 0.00 0.00 0.00 32 1010.9
20260906212329 32 96 8.0 12.9 0.00 0.00 0.00 31 1011.1
20260906211828 32 77 8.0 11.3 0.00 0.00 0.00 31 1011.1
20260906211323 32 77 14.5 17.7 0.00 0.00 0.00 31 1011.1
20260906210819 32 339 6.4 11.3 0.00 0.00 0.00 34 1011.1
20260906210319 31 357 16.1 24.1 0.00 0.00 0.00 34 1011.3
20260906205814 32 353 8.0 16.1 0.00 0.00 0.00 34 1011.4
20260906205310 31 25 8.0 16.1 0.00 0.00 0.00 34 1011.3
20260906204806 31 78 4.8 22.5 0.00 0.00 0.00 35 1011.4
20260906204305 32 340 8.0 22.5 0.00 0.00 0.00 34 1011.5
20260906203804 31 43 11.3 20.9 0.00 0.00 0.00 35 1011.5
20260906203300 30 15 8.0 22.5 0.00 0.00 0.00 36 1012.0
20260906202756 31 358 9.7 14.5 0.00 0.00 0.00 36 1012.0
20260906202256 30 13 4.8 22.5 0.00 0.00 0.00 36 1011.8
20260906201750 30 289 14.5 22.5 0.00 0.00 0.00 37 1011.8
20260906201250 30 338 8.0 20.9 0.00 0.00 0.00 38 1011.8
20260906200746 30 357 12.9 22.5 0.00 0.00 0.00 38 1012.0
20260906200242 30 342 20.9 25.7 0.00 0.00 0.00 37 1012.0
20260906195737 29 288 17.7 24.1 0.00 0.00 0.00 39 1012.2
20260906195233 29 309 22.5 27.4 0.00 0.00 0.00 39 1012.4
20260906194729 30 8 22.5 27.4 0.00 0.00 0.00 38 1012.5
20260906194225 30 352 20.9 25.7 0.00 0.00 0.00 38 1012.2
20260906193720 30 307 9.7 20.9 0.00 0.00 0.00 41 1012.3
20260906193214 30 32 14.5 20.9 0.00 0.00 0.00 38 1012.5
20260906192710 28 281 12.9 14.5 0.00 0.00 0.00 40 1012.5
20260906192209 28 307 16.1 25.7 0.00 0.00 0.00 41 1012.8
20260906191704 28 318 16.1 22.5 0.00 0.00 0.00 41 1012.7
20260906191204 28 313 12.9 24.1 0.00 0.00 0.00 41 1013.0
20260906190658 28 354 16.1 17.7 0.00 0.00 0.00 41 1013.1
20260906190153 28 309 12.9 14.5 0.00 0.00 0.00 43 1013.1
20260906185652 27 325 9.7 20.9 0.00 0.00 0.00 44 1013.3
20260906185151 27 272 8.0 17.7 0.00 0.00 0.00 45 1013.6
20260906184646 27 318 17.7 22.5 0.00 0.00 0.00 44 1013.3
20260906184142 27 335 14.5 17.7 0.00 0.00 0.00 42 1013.7
20260906183637 27 316 8.0 14.5 0.00 0.00 0.00 44 1013.6
20260906183133 27 336 6.4 20.9 0.00 0.00 0.00 43 1014.0
20260906182633 27 351 9.7 16.1 0.00 0.00 0.00 46 1013.8
20260906182129 27 39 11.3 17.7 0.00 0.00 0.00 43 1014.0
20260906181630 27 346 6.4 14.5 0.00 0.00 0.00 43 1014.2
20260906181126 27 288 8.0 11.3 0.00 0.00 0.00 42 1014.3
20260906180621 27 303 9.7 14.5 0.00 0.00 0.00 42 1014.3
20260906180115 26 311 9.7 14.5 0.00 0.00 0.00 43 1014.4
20260906175613 26 339 12.9 16.1 0.00 0.00 0.00 42 1014.7
20260906175108 26 3 8.0 11.3 0.00 0.00 0.00 42 1014.5
20260906174606 27 324 8.0 9.7 0.00 0.00 0.00 42 1014.7
20260906174101 26 342 4.8 8.0 0.00 0.00 0.00 44 1014.9
20260906173556 26 314 6.4 8.0 0.00 0.00 0.00 46 1014.9
20260906173053 25 327 4.8 11.3 0.00 0.00 0.00 45 1015.1
20260906172552 25 317 9.7 11.3 0.00 0.00 0.00 46 1015.3
20260906172048 25 300 6.4 11.3 0.00 0.00 0.00 47 1015.3
20260906171547 25 270 3.2 4.8 0.00 0.00 0.00 46 1015.1
20260906171043 25 272 4.8 4.8 0.00 0.00 0.00 46 1015.5
20260906170539 25 316 1.6 1.6 0.00 0.00 0.00 45 1015.6
20260906170038 25 328 3.2 4.8 0.00 0.00 0.00 46 1015.7
20260906165535 25 334 1.6 3.2 0.00 0.00 0.00 45 1016.0
20260906165030 24 272 4.8 4.8 0.00 0.00 0.00 48 1015.7
20260906164529 24 281 3.2 4.8 0.00 0.00 0.00 48 1015.7
20260906164025 23 334 1.6 4.8 0.00 0.00 0.00 47 1016.0
20260906163520 24 306 6.4 9.7 0.00 0.00 0.00 49 1015.8
20260906163015 25 348 3.2 4.8 0.00 0.00 0.00 47 1015.8
20260906162512 24 78 3.2 8.0 0.00 0.00 0.00 47 1016.0
20260906162007 25 51 1.6 3.2 0.00 0.00 0.00 46 1016.0
20260906161502 24 35 4.8 4.8 0.00 0.00 0.00 48 1016.0
20260906161001 24 140 1.6 4.8 0.00 0.00 0.00 48 1015.6
20260906160454 23 16 0.0 1.6 0.00 0.00 0.00 50 1016.0
20260906155952 24 51 3.2 4.8 0.00 0.00 0.00 49 1016.0
20260906155451 23 356 1.6 4.8 0.00 0.00 0.00 51 1016.1
20260906154948 22 304 6.4 8.0 0.00 0.00 0.00 54 1015.7
20260906154443 23 343 4.8 4.8 0.00 0.00 0.00 51 1015.8
20260906153941 23 325 1.6 8.0 0.00 0.00 0.00 52 1016.0
20260906153440 22 347 0.0 4.8 0.00 0.00 0.00 55 1015.8
20260906152935 22 340 1.6 8.0 0.00 0.00 0.00 55 1015.8
20260906152430 22 6 1.6 3.2 0.00 0.00 0.00 53 1015.7
20260906151929 22 15 6.4 8.0 0.00 0.00 0.00 51 1016.1
20260906151425 21 340 1.6 1.6 0.00 0.00 0.00 56 1016.0
20260906150920 22 340 0.0 1.6 0.00 0.00 0.00 54 1016.1
20260906150415 21 331 0.0 1.6 0.00 0.00 0.00 53 1016.1
20260906145915 22 14 0.0 0.0 0.00 0.00 0.00 52 1016.2
20260906145413 21 337 0.0 0.0 0.00 0.00 0.00 51 1016.2
20260906144908 21 356 0.0 3.2 0.00 0.00 0.00 52 1016.2
20260906144403 20 14 1.6 3.2 0.00 0.00 0.00 53 1016.1
20260906143858 20 345 0.0 1.6 0.00 0.00 0.00 54 1016.0
20260906143354 20 326 0.0 1.6 0.00 0.00 0.00 55 1016.1
20260906142850 20 333 0.0 1.6 0.00 0.00 0.00 55 1016.1
20260906142344 19 323 1.6 3.2 0.00 0.00 0.00 55 1016.2
20260906141844 19 334 1.6 3.2 0.00 0.00 0.00 57 1016.0
20260906141339 19 333 0.0 0.0 0.00 0.00 0.00 59 1016.1
20260906140838 19 335 0.0 0.0 0.00 0.00 0.00 58 1016.0
20260906140333 19 342 0.0 1.6 0.00 0.00 0.00 58 1016.1
20260906135830 20 336 0.0 1.6 0.00 0.00 0.00 55 1016.1
20260906135320 19 328 0.0 0.0 0.00 0.00 0.00 57 1016.2
20260906134815 18 327 0.0 0.0 0.00 0.00 0.00 59 1016.2
20260906134310 19 335 0.0 0.0 0.00 0.00 0.00 57 1016.1
20260906133806 17 327 0.0 0.0 0.00 0.00 0.00 62 1015.8
20260906133301 17 319 0.0 0.0 0.00 0.00 0.00 62 1016.3
20260906132756 17 6 0.0 0.0 0.00 0.00 0.00 61 1015.8
20260906132252 17 6 0.0 0.0 0.00 0.00 0.00 63 1016.1
20260906131748 17 6 0.0 0.0 0.00 0.00 0.00 64 1015.7
20260906131248 17 6 0.0 0.0 0.00 0.00 0.00 61 1016.0
20260906130743 17 6 0.0 0.0 0.00 0.00 0.00 62 1015.7
20260906130238 16 6 0.0 0.0 0.00 0.00 0.00 64 1015.4
20260906125736 16 6 0.0 0.0 0.00 0.00 0.00 65 1015.6
20260906125235 16 6 0.0 0.0 0.00 0.00 0.00 66 1015.5
20260906124729 16 6 0.0 1.6 0.00 0.00 0.00 67 1015.4
20260906124226 16 322 0.0 3.2 0.00 0.00 0.00 65 1015.5
20260906123724 16 321 0.0 0.0 0.00 0.00 0.00 67 1015.5
20260906123220 15 339 0.0 0.0 0.00 0.00 0.00 67 1015.5
20260906122719 16 339 0.0 0.0 0.00 0.00 0.00 66 1015.5
20260906122214 16 339 0.0 0.0 0.00 0.00 0.00 65 1015.6
20260906121711 16 334 0.0 0.0 0.00 0.00 0.00 65 1015.6
20260906121207 17 318 0.0 1.6 0.00 0.00 0.00 62 1015.4
20260906120702 17 304 4.8 4.8 0.00 0.00 0.00 61 1015.6
20260906120159 17 322 3.2 3.2 0.00 0.00 0.00 62 1015.7
20260906115654 16 327 1.6 3.2 0.00 0.00 0.00 63 1015.6
20260906115149 17 326 0.0 1.6 0.00 0.00 0.00 63 1015.7
20260906114648 17 327 0.0 1.6 0.00 0.00 0.00 62 1015.8
20260906114143 17 313 1.6 3.2 0.00 0.00 0.00 60 1015.7
20260906113638 17 288 1.6 1.6 0.00 0.00 0.00 61 1015.5
20260906113138 17 291 1.6 1.6 0.00 0.00 0.00 62 1015.7
20260906112637 16 328 0.0 0.0 0.00 0.00 0.00 68 1015.6
20260906112135 16 328 0.0 0.0 0.00 0.00 0.00 67 1015.8
20260906111633 17 313 0.0 0.0 0.00 0.00 0.00 66 1015.6
20260906111128 16 130 1.6 3.2 0.00 0.00 0.00 64 1015.4
20260906110623 16 114 4.8 4.8 0.00 0.00 0.00 68 1015.5
20260906110118 17 208 3.2 4.8 0.00 0.00 0.00 62 1015.0
20260906105612 17 191 0.0 1.6 0.00 0.00 0.00 59 1014.9
20260906105109 18 354 0.0 1.6 0.00 0.00 0.00 59 1015.1
20260906104608 18 253 3.2 4.8 0.00 0.00 0.00 59 1015.3
20260906104102 17 275 4.8 4.8 0.00 0.00 0.00 62 1015.0
20260906103600 17 314 0.0 0.0 0.00 0.00 0.00 62 1015.0
20260906103056 17 349 0.0 0.0 0.00 0.00 0.00 61 1015.0
20260906102555 17 327 0.0 0.0 0.00 0.00 0.00 64 1014.9
20260906102050 16 338 0.0 0.0 0.00 0.00 0.00 66 1014.9
20260906101545 16 324 0.0 0.0 0.00 0.00 0.00 67 1015.0
20260906101039 17 323 0.0 0.0 0.00 0.00 0.00 66 1015.3
20260906100536 17 65 0.0 0.0 0.00 0.00 0.00 65 1014.9
20260906100036 17 141 0.0 0.0 0.00 0.00 0.00 65 1015.0
20260906095530 17 144 0.0 0.0 0.00 0.00 0.00 64 1015.0
20260906095026 17 334 0.0 0.0 0.00 0.00 0.00 61 1014.9
20260906094524 18 332 0.0 0.0 0.00 0.00 0.00 60 1014.9
20260906094021 18 333 0.0 0.0 0.00 0.00 0.00 59 1014.8
20260906093516 18 342 0.0 0.0 0.00 0.00 0.00 60 1014.9
20260906093016 18 332 0.0 0.0 0.00 0.00 0.00 58 1014.9
20260906092511 18 274 1.6 3.2 0.00 0.00 0.00 59 1015.0
20260906092006 18 326 0.0 0.0 0.00 0.00 0.00 61 1014.9
20260906091502 17 275 0.0 0.0 0.00 0.00 0.00 64 1014.9
20260906090959 17 283 0.0 0.0 0.00 0.00 0.00 62 1015.1
20260906090453 18 22 1.6 3.2 0.00 0.00 0.00 63 1014.9
20260906085953 18 14 1.6 3.2 0.00 0.00 0.00 63 1014.8
20260906085452 18 20 0.0 1.6 0.00 0.00 0.00 62 1014.9
20260906084951 18 8 3.2 4.8 0.00 0.00 0.00 61 1014.8
20260906084446 18 18 1.6 3.2 0.00 0.00 0.00 60 1015.0
20260906083945 18 315 0.0 0.0 0.00 0.00 0.00 57 1014.8
20260906083441 18 298 0.0 0.0 0.00 0.00 0.00 60 1014.5
20260906082940 18 335 0.0 0.0 0.00 0.00 0.00 59 1014.4
20260906082436 18 344 0.0 0.0 0.00 0.00 0.00 60 1014.5
20260906081931 18 336 0.0 0.0 0.00 0.00 0.00 57 1014.7
20260906081426 18 8 0.0 0.0 0.00 0.00 0.00 60 1014.7
20260906080923 19 326 0.0 0.0 0.00 0.00 0.00 59 1014.7
20260906080420 20 348 0.0 0.0 0.00 0.00 0.00 55 1014.5
20260906075919 19 357 0.0 0.0 0.00 0.00 0.00 56 1014.5
20260906075414 20 358 0.0 0.0 0.00 0.00 0.00 57 1014.7
20260906074909 20 340 0.0 0.0 0.00 0.00 0.00 55 1014.7
20260906074409 19 337 0.0 0.0 0.00 0.00 0.00 56 1014.5
20260906073908 21 340 0.0 0.0 0.00 0.00 0.00 52 1014.4
20260906073403 21 113 3.2 4.8 0.00 0.00 0.00 49 1014.3
20260906072859 19 358 0.0 0.0 0.00 0.00 0.00 54 1014.3
20260906072354 19 358 0.0 0.0 0.00 0.00 0.00 58 1014.5
20260906071850 19 6 0.0 1.6 0.00 0.00 0.00 60 1014.4
20260906071345 19 348 0.0 1.6 0.00 0.00 0.00 59 1014.5
20260906070841 20 324 0.0 1.6 0.00 0.00 0.00 59 1014.7
20260906070337 19 207 4.8 4.8 0.00 0.00 0.00 64 1014.7
20260906065832 19 252 1.6 3.2 0.00 0.00 0.00 66 1014.5
20260906065327 18 51 1.6 3.2 0.00 0.00 0.00 69 1014.7
20260906064822 18 43 0.0 0.0 0.00 0.00 0.00 73 1014.8
20260906064319 18 356 0.0 1.6 0.00 0.00 0.00 72 1014.8
20260906063813 18 157 3.2 8.0 0.00 0.00 0.00 74 1014.8
20260906063308 18 309 0.0 0.0 0.00 0.00 0.00 73 1014.8
20260906062803 18 319 0.0 0.0 0.00 0.00 0.00 71 1014.9
20260906062305 18 335 0.0 0.0 0.00 0.00 0.00 71 1015.0
20260906061758 19 305 0.0 0.0 0.00 0.00 0.00 70 1015.0
20260906061255 19 357 0.0 0.0 0.00 0.00 0.00 68 1014.9
20260906060749 20 327 0.0 1.6 0.00 0.00 0.00 67 1015.1
20260906060247 21 185 3.2 3.2 0.00 0.00 0.00 64 1015.0
20260906055742 20 150 4.8 4.8 0.00 0.05 0.05 69 1015.1
20260906055237 20 182 4.8 4.8 0.00 0.05 0.05 70 1015.3
20260906054733 20 51 1.6 8.0 0.00 0.05 0.05 69 1015.0
20260906054228 20 131 4.8 4.8 0.00 0.05 0.05 67 1014.8
20260906053725 21 298 3.2 3.2 0.00 0.05 0.05 62 1014.9
20260906053220 21 56 8.0 9.7 0.00 0.05 0.05 60 1015.1
20260906052715 20 9 1.6 1.6 0.00 0.05 0.05 67 1014.9
20260906052211 21 309 0.0 1.6 0.00 0.05 0.05 56 1014.9
20260906051708 21 332 1.6 4.8 0.00 0.05 0.05 57 1015.0
20260906051207 21 277 3.2 4.8 0.00 0.05 0.05 52 1015.0
20260906050703 22 308 3.2 8.0 0.30 0.05 0.05 55 1015.3
20260906050158 21 266 8.0 12.9 0.30 0.05 0.05 54 1015.4
20260906045656 22 265 9.7 16.1 0.00 0.00 0.00 54 1015.1
20260906045151 23 310 9.7 11.3 0.00 0.00 0.00 44 1014.9
20260906044647 24 306 9.7 11.3 0.00 0.00 0.00 38 1015.1
20260906044142 25 329 1.6 4.8 0.00 0.00 0.00 38 1015.3
20260906043639 25 264 8.0 9.7 0.00 0.00 0.00 36 1015.0
20260906043134 25 263 8.0 9.7 0.00 0.00 0.00 35 1015.3
20260906042633 25 268 11.3 14.5 0.00 0.00 0.00 37 1015.3
20260906042127 23 276 6.4 8.0 0.00 0.00 0.00 41 1015.0
20260906041623 23 314 4.8 4.8 0.00 0.00 0.00 41 1015.1
20260906041118 24 314 0.0 1.6 0.00 0.00 0.00 38 1014.9
20260906040614 24 324 0.0 0.0 0.00 0.00 0.00 38 1014.8
20260906040109 25 175 3.2 8.0 0.00 0.00 0.00 37 1014.7
20260906035604 24 126 6.4 8.0 0.00 0.00 0.00 37 1014.4
20260906035100 24 189 6.4 8.0 0.00 0.00 0.00 37 1014.7
20260906034559 24 156 11.3 20.9 0.00 0.00 0.00 37 1014.7
20260906034054 23 143 11.3 17.7 0.00 0.00 0.00 40 1014.5
20260906033550 22 143 4.8 8.0 0.00 0.00 0.00 45 1014.4
20260906033045 23 77 3.2 4.8 0.00 0.00 0.00 41 1014.0
20260906032542 23 107 4.8 4.8 0.00 0.00 0.00 41 1013.8
20260906032036 22 122 3.2 3.2 0.00 0.00 0.00 42 1013.8
20260906031532 22 333 0.0 1.6 0.00 0.00 0.00 42 1014.1
20260906031027 23 346 0.0 1.6 0.00 0.00 0.00 41 1013.6
20260906030526 23 350 4.8 4.8 0.00 0.00 0.00 42 1014.0
20260906030026 23 103 3.2 3.2 0.00 0.00 0.00 39 1013.6
20260906025526 23 30 1.6 1.6 0.00 0.00 0.00 41 1013.6
20260906025024 23 297 0.0 4.8 0.00 0.00 0.00 40 1013.3
20260906024520 25 311 0.0 3.2 0.00 0.00 0.00 39 1013.3
20260906024020 24 135 3.2 4.8 0.00 0.00 0.00 39 1013.4
20260906023516 25 172 8.0 9.7 0.00 0.00 0.00 38 1013.4
20260906023011 25 172 4.8 4.8 0.00 0.00 0.00 36 1013.1
20260906022506 25 150 4.8 4.8 0.00 0.00 0.00 37 1013.3
20260906022001 25 314 0.0 1.6 0.00 0.00 0.00 36 1013.4
20260906021456 25 334 0.0 3.2 0.00 0.00 0.00 36 1013.4
20260906020950 25 333 1.6 1.6 0.00 0.00 0.00 35 1012.9
20260906020445 25 336 1.6 8.0 0.00 0.00 0.00 35 1012.8
20260906015944 26 303 1.6 3.2 0.00 0.00 0.00 34 1012.9
20260906015444 26 321 1.6 1.6 0.00 0.00 0.00 35 1012.5
20260906014944 26 318 3.2 3.2 0.00 0.00 0.00 36 1012.9
20260906014438 26 331 0.0 1.6 0.00 0.00 0.00 37 1012.5
20260906013934 25 325 1.6 1.6 0.00 0.00 0.00 38 1012.4
20260906013429 27 302 1.6 3.2 0.00 0.00 0.00 39 1012.2
20260906012925 27 170 3.2 3.2 0.00 0.00 0.00 34 1012.2
20260906012425 27 147 4.8 4.8 0.00 0.00 0.00 33 1012.2
20260906011924 28 170 6.4 8.0 0.00 0.00 0.00 33 1012.3
20260906011420 28 169 6.4 8.0 0.00 0.00 0.00 32 1012.7
20260906010915 29 154 6.4 8.0 0.00 0.00 0.00 30 1012.1
20260906010411 30 178 3.2 4.8 0.00 0.00 0.00 29 1012.4
20260906005907 30 174 3.2 4.8 0.00 0.00 0.00 30 1012.4
20260906005406 30 160 4.8 4.8 0.00 0.00 0.00 29 1012.2
20260906004904 30 186 4.8 4.8 0.00 0.00 0.00 28 1012.5
20260906004359 31 157 4.8 8.0 0.00 0.00 0.00 27 1012.4
20260906003854 31 163 6.4 11.3 0.00 0.00 0.00 26 1012.4
20260906003350 31 321 3.2 8.0 0.00 0.00 0.00 27 1012.4
20260906002845 31 155 4.8 9.7 0.00 0.00 0.00 26 1012.4
20260906002344 31 164 9.7 11.3 0.00 0.00 0.00 26 1012.4
20260906001840 31 315 4.8 12.9 0.00 0.00 0.00 26 1012.3
20260906001336 32 115 3.2 11.3 0.00 0.00 0.00 25 1012.5
20260906000831 32 65 3.2 4.8 0.00 0.00 0.00 23 1012.1
20260906000326 32 20 3.2 9.7 0.00 0.00 0.00 24 1012.2
20260905235825 32 32 8.0 11.3 0.00 0.00 0.00 24 1012.2
20260905235320 32 62 4.8 12.9 0.00 0.00 0.00 23 1012.2
20260905234815 32 65 1.6 14.5 0.00 0.00 0.00 24 1012.2
20260905234310 32 51 4.8 12.9 0.00 0.00 0.00 24 1012.1
20260905233805 32 59 6.4 11.3 0.00 0.00 0.00 24 1012.1
20260905233300 32 58 3.2 11.3 0.00 0.00 0.00 23 1012.1
20260905232759 32 79 9.7 12.9 0.00 0.00 0.00 23 1012.1
20260905232255 32 58 14.5 17.7 0.00 0.00 0.00 23 1012.1
20260905231751 32 358 9.7 12.9 0.00 0.00 0.00 24 1012.4
20260905231246 32 8 9.7 11.3 0.00 0.00 0.00 23 1012.2
20260905230742 32 318 12.9 17.7 0.00 0.00 0.00 25 1011.7
20260905230240 32 4 4.8 9.7 0.00 0.00 0.00 24 1012.3
20260905225739 32 339 6.4 12.9 0.00 0.00 0.00 24 1012.0
20260905225235 32 294 3.2 9.7 0.00 0.00 0.00 23 1012.2
20260905224734 32 315 1.6 3.2 0.00 0.00 0.00 23 1012.0
20260905224230 32 355 11.3 16.1 0.00 0.00 0.00 23 1012.0
20260905223726 32 318 9.7 17.7 0.00 0.00 0.00 24 1012.2